Αρχική σελίδα
METAR-TAF:

METAR-TAF

Αεροδρόμια :

Grass Valley, Καλιφόρνια, Ηνωμένες Πολιτείες Αμερικής

γεωγραφικό πλάτος: 39-13-26N, γεωγραφικό μήκος: 121-00-11W, υψόμετρο: 961 μ

Παρών καιρός

Η αναφορά έγινε 14 λεπτά πριν, στις 10:35 UTC
Ήπιος άνεμος
Θερμοκρασία 14°C
Υγρασία 55%
Πίεση 1014 hPa
Ορατότητα: 16.1 χλμ
Καθαρός ουρανός

METAR: KGOO 191035Z AUTO 00000KT 10SM CLR 14/05 A2994 RMK AO1

Χρόνος: 03:49 (10:49 UTC)


TAF: λείπει

Μετεωρολογικές αναφορές και προγνώσεις για περισσότερα από 4000 αεροδρόμια (δελτία METAR και TAF).

Οι διαθέσιμοι σταθμοί απεικονίζονται στο χάρτη με κίτρινες και κόκκινες κουκκίδες.

Μετακινήστε το ποντίκι πάνω από τις κουκκίδες για να δείτε το όνομα του σταθμού.

Στη συνέχεια, κάντε κλικ για να δείτε τις μετεωρολογικές αναφορές και τις προγνώσεις καιρού.

Για να αλλάξετε το χάρτη: κάντε κλικ στα πράσινα κουμπιά με τον μαύρο σταυρό για να ζουμάρετε, στο πράσινο κουμπί με την παύλα για να αφαιρέσετε το ζουμ ή στα πράσινα βέλη για να αντιπαραβάλλετε χάρτες.


METAR-TAF: